Location: *
(43.9905°S, 176.4941°W)
Time: 06:09:24
(UTC+00:00)

Cosmos 1821 Rocket - Pass Details

Date: 08 December 2019
Orbit: 945 x 1004 km, 82.9° (Epoch: 17 January)

Event Time Altitude Azimuth Distance (km) Brightness Sun altitude
Rises 11:44:49 0° 189° (S) 3,657 8.4 -23.3°
Reaches altitude 10° 11:47:20 10° 190° (S) 2,703 7.4 -23.3°
Maximum altitude 11:53:31 83° 276° (W) 969 3.9 -23.2°
Enters shadow 11:55:18 49° 357° (N) 1,212 4.0 -23.2°
